Simultaneous Nadir Overpasses (SNOs) Predictions

Prediction of SNOs between METOP-B and TERRA Satellite Orbit:

Table of predicted SNOs for the next 14.0 days since TLE Epoch: 4/23/2022
Index Date (METOP-B) Time (METOP-B) Lat,Lon (METOP-B) SZA (METOP-B ) Date (TERRA) Time (TERRA) Lat,Lon (TERRA) SZA (TERRA ) Distance(km) Time Diff (sec)
1 04/24/2022 15:28:20 81.18, -10.85 70.46 04/24/2022 15:29:13 81.17, -10.80 70.49 0.95 53
2 04/24/2022 16:18:59 -81.19, 157.09 109.48 04/24/2022 16:18:39 -81.19, 157.11 109.49 0.48 20
3 04/27/2022 11:02:41 81.18, 55.82 69.60 04/27/2022 11:03:24 81.17, 55.66 69.60 3.01 43
4 04/27/2022 11:53:21 -81.19,-136.61 110.38 04/27/2022 11:52:50 -81.19,-136.41 110.37 3.30 31
5 04/30/2022 06:37:02 81.19, 122.45 68.77 04/30/2022 06:37:34 81.19, 122.34 68.77 1.85 32
6 04/30/2022 07:27:42 -81.20, -69.96 111.22 04/30/2022 07:27:01 -81.19, -70.07 111.25 2.10 41
7 05/03/2022 02:11:24 81.18,-171.37 67.91 05/03/2022 02:11:45 81.17,-171.49 67.89 2.34 21
8 05/03/2022 03:02:03 -81.20, -3.37 112.03 05/03/2022 03:01:11 -81.20, -3.51 112.07 2.35 52
9 05/05/2022 21:45:44 81.19,-104.85 67.12 05/05/2022 21:45:53 81.20,-104.72 67.14 2.35 9



Historial Predications of SNOs between METOP-B and TERRA
